Flag for Argentina Weather past 2 weeks in Salta, Salta, Argentina

66 °F

Passing clouds.

Feels Like: 66 °F
Forecast: N/A
Wind: 15 mph from North

Location: Salta Aerodrome

Current Time: Oct 4, 2015 at 7:07:49 PM

Latest Report: Oct 4, 2015 at 6:00 PM

Visibility: N/A

Pressure: 29.98 "Hg (26.10 "Hg at 1184m altitude)

Humidity: 52%

Dew point: 48 °F

Location of SaltaLocation

Historic Weather in Salta — Graph


Salta temperature yesterday

Maximum temperature yesterday: 59 °F (at 2:00 PM)
Minimum temperature yesterday: 50 °F (at 5:00 AM)
Average temperature yesterday: 54 °F

Past Weeks' High & Low Weather Summary

High91 °F (Sep 21, 5:00 PM)100% (Oct 1, 5:00 AM)30.21 "Hg (Oct 1, 5:00 AM)
Low46 °F (Oct 1, 6:00 AM)21% (Sep 21, 5:00 PM)29.71 "Hg (Sep 21, 3:00 PM)
Average63 °F66%29.95 "Hg
* Reported Sep 19 5:00 PM — Oct 4 5:00 PM, Salta, Weather by CustomWeather, © 2015

Note: Actual official high and low records may vary slightly from our data, if they occured in-between our weather recording intervals... More about our weather records


Salta weather history for previous 24 hours

Time TempWeatherWind HumidityBarometerVisibility
5:00 PM
Sun, Oct 4
68 °FPassing clouds.10 mph46%29.98 "HgN/A
4:00 PM68 °FPassing clouds.9 mph46%29.98 "HgN/A
3:00 PM68 °FPassing clouds.6 mph46%30.01 "HgN/A
2:00 PM64 °FScattered clouds.3 mph49%30.04 "HgN/A
1:00 PM64 °FPartly sunny.9 mph49%30.07 "HgN/A
12:00 PM61 °FScattered clouds.3 mph55%30.09 "HgN/A
11:00 AM59 °FPartly sunny.6 mph68%30.12 "HgN/A
10:00 AM54 °FMore clouds than sun.6 mph82%30.12 "HgN/A
9:00 AM52 °FMore clouds than sun.6 mph88%30.12 "HgN/A
7:00 AM52 °FMore clouds than sun.6 mph94%30.09 "HgN/A
6:00 AM52 °FOvercast.3 mph94%30.09 "HgN/A
5:00 AM52 °FOvercast.6 mph94%30.07 "HgN/A
4:00 AM52 °FOvercast.8 mph88%30.09 "HgN/A
3:00 AM52 °FDrizzle. Overcast.3 mph94%30.09 "Hg5 mi
2:00 AM52 °FDrizzle. Overcast.5 mph94%30.12 "Hg5 mi
1:00 AM52 °FDrizzle. Overcast.6 mph94%30.12 "Hg5 mi
12:00 AM52 °FPartly cloudy.5 mph94%30.12 "HgN/A
11:00 PM
Sat, Oct 3
54 °FPartly cloudy.6 mph88%30.12 "Hg5 mi
10:00 PM54 °FPartly cloudy.6 mph88%30.12 "Hg5 mi
9:00 PM55 °FPassing clouds.3 mph77%30.12 "HgN/A
8:00 PM55 °FPassing clouds.7 mph82%30.09 "HgN/A
7:00 PM55 °FPassing clouds.10 mph72%30.07 "HgN/A
Weather by CustomWeather, © 2015

See weather overviewHow to use our weather pages